Regional Weather Roundup
Issued by NWS

Home | Current Version | Previous Version | Text Only | Print | Product List | Glossary On
Versions: 1 2 3 4 5 6 7 8 9 10 11 12 13 14 15 16 17 18 19 20 21 22 23 24 25 26 27 28 29 30 31 32 33 34 35 36 37 38 39 40 41 42 43 44 45 46 47 48 49 50
000
ASUS45 KBOU 271907
RWRCO

WEATHER ROUNDUP FOR COLORADO
NATIONAL WEATHER SERVICE DENVER/BOULDER CO
100 PM MDT TUE JUN 27 2017

NOTE: "FAIR" INDICATES FEW OR NO CLOUDS BELOW 12000 FEET WITH NO
SIGNIFICANT WEATHER AND/OR OBSTRUCTIONS TO VISIBILITY.

COZ001>005-013-030-031-272000-
...NORTHWEST COLORADO...

CITY           SKY/WX    TMP DP  RH WIND       PRES   REMARKS
CRAIG          FAIR      88  21   8 W17G29    29.99S
HAYDEN         FAIR      82  28  14 NW17G25   30.01F
MEEKER         FAIR      88  15   6 SW17G32   30.01F
RABBIT EARS PA FAIR      64  36  34 W14G23    30.32F
STEAMBOAT SPGS FAIR      82  30  15 W17G29    30.03F
WALDEN         FAIR      77  25  14 W22G29    30.14F
$$

COZ006>008-011-272000-
...WEST CENTRAL VALLEYS...

CITY           SKY/WX    TMP DP  RH WIND       PRES   REMARKS
GRAND JUNCTION FAIR      95  17   6 W18G29    29.91F
MONTROSE       FAIR      89  27  10 SW14      30.03F
EAGLE          MOSUNNY   86  30  13 SW22G32   30.04F
RIFLE          FAIR      91  18   7 W21G35    29.97F
DELTA          FAIR      96  21   6 W17G28    29.98F
NUCLA          NOT AVBL
$$

COZ017>023-064>068-272000-
...SOUTHWEST COLORADO...

CITY           SKY/WX    TMP DP  RH WIND       PRES   REMARKS
DURANGO        FAIR      83  32  16 W13       30.16F
CORTEZ         FAIR      89  25  10 W14G28    30.09F
PAGOSA SPRINGS FAIR      78  31  17 SW10G16   30.25F
TELLURIDE      FAIR      73  25  16 SW16G29   30.34S
WOLF CREEK PAS FAIR      54  32  43 SW21G33   30.59S
$$

COZ009-010-012-014-032>034-037-058>063-272000-
...CENTRAL COLORADO...

CITY           SKY/WX    TMP DP  RH WIND       PRES   REMARKS
ASPEN          FAIR      80  25  13 VRB7G18   30.16S
BUENA VISTA    FAIR      82  20  10 W18G31    30.15F
COPPER MTN     NOT AVBL
BERTHOUD PASS  PTSUNNY   52  39  62 W21G31    30.50F
COTTONWOOD PAS FAIR      72  14  11 SW21G32   30.31F
GUNNISON       FAIR      79  29  16 W21G29    30.16F
KREMMLING      FAIR      88  18   7 SW26G36   30.09F
LEADVILLE      PTSUNNY   69  21  16 SW13G22   30.30F
MONARCH PASS   FAIR      59  30  33 SW35G41   30.58F
SALIDA         FAIR      81  37  20 S17G28    30.21S
SUNLIGHT       FAIR      68  25  19 SW18G33   30.38F
WILKERSON PASS FAIR      68  23  18 SW12G26   30.44F
$$

COZ069>075-272000-
...SAN LUIS VALLEY/SANGRE DE CRISTO MOUNTAINS...

CITY           SKY/WX    TMP DP  RH WIND       PRES   REMARKS
ALAMOSA        FAIR      81  40  23 S12G18    30.17F
DEL NORTE      FAIR      74  42  31 E7        30.20F
LA VETA PASS   FAIR      68  37  32 S24       30.49S
SAGUACHE       FAIR      73  39  29 E8        30.21F
$$

COZ035-036-038>040-272000-
...NORTHERN COLORADO FRONT RANGE...

CITY           SKY/WX    TMP DP  RH WIND       PRES   REMARKS
DENVER INTL AP PTSUNNY   93  32  11 W9        29.87F
DMNS CITY PARK   N/A     92  34  12 NE3       29.85F
AURORA         PTSUNNY   90  34  13 NW9       29.88F
FRONT RANGE AP FAIR      95  32  11 W10G16    29.89F
ERIE MUNI ARPT FAIR      91  38  15 CALM      29.84F
BOULDER MUN AP FAIR      93  32  11 SW17G28   29.84F
CENTENNIAL     PTSUNNY   92  24   8 W14G29    29.90F
BROOMFIELD     FAIR      91  36  14 SE9       29.89F
FORT COLLINS   FAIR      91  50  24 S8        29.83F
LONGMONT       FAIR      95  45  18 E7        29.84F
$$

COZ041-046-047-076>085-087-088-272000-
...PIKES PEAK/PALMER DIVIDE AND SOUTHERN FOOTHILLS...

CITY           SKY/WX    TMP DP  RH WIND       PRES   REMARKS
COLO. SPRINGS  PTSUNNY   90  33  13 SW7       29.99F
A. F. ACADEMY  FAIR      86  30  13 NW8G23    29.99F
SCHRIEVER AFB  FAIR      88  32  13 S16G24    30.00F
CHEYENNE MTN   PTSUNNY   83  31  15 S15G22    29.99F
ELLICOTT       FAIR     N/A N/A N/A W18G32    29.98F
FALCON           N/A     88  29  12 SW13G18   30.06F
FORT CARSON    FAIR      92  33  12 SW14G28   29.95F
LIMON          FAIR      80  40  23 SE16      29.91F
MONUMENT HILL  FAIR      86  32  14 W9G17     30.05F
CANON CITY     SUNNY     93  37  14 W15       29.93F
WALSENBURG     FAIR      90  39  17 W20G28    30.02F
TRINIDAD       LGT RAIN  83  34  17 NW10G36   30.00F
$$

COZ042>045-048>051-090-091-272000-
...NORTHEAST COLORADO...

CITY           SKY/WX    TMP DP  RH WIND       PRES   REMARKS
GREELEY ARPT   FAIR      91  57  31 SE6       29.82F
AKRON          FAIR      95  40  14 SW10      29.83F
BURLINGTON     FAIR      92  52  25 S22G31    29.87F
WRAY           FAIR      90  55  31 SE17G24   29.81F
YUMA           FAIR      88  55  33 S17G25    29.81F
STERLING       FAIR      91  50  24 S6        29.77F
HOLYOKE        NOT AVBL
FORT MORGAN    FAIR      88  45  22 S5        29.83F
$$

COZ086-089-092>099-272000-
...SOUTHEAST COLORADO...

CITY           SKY/WX    TMP DP  RH WIND       PRES   REMARKS
PUEBLO         FAIR      93  45  19 VRB5      29.88F
LA JUNTA       FAIR      95  48  20 S12       29.87F
LAMAR          FAIR      98  48  18 SW12G20   29.83F
SPRINGFIELD      N/A     89  51  27 S24G35    29.94F
$$



USA.gov is the U.S. government's official web portal to all federal, state and local government web resources and services.